Location: Unspecified
(33.6682°S, 0.0000°E)
Time: 22:57:23
(UTC+00:00)

Vanguard 1 - Pass Details

Date: 28 June 2019
Orbit: 653 x 3830 km, 34.3° (Epoch: 20 July)

Event Time Altitude Azimuth Distance (km) Brightness Sun altitude
Rises 22:18:19 0° 269° (W) 6,496 14.6 -64.8°
Reaches altitude 10° 22:24:53 10° 286° (WNW) 6,029 14.2 -66.1°
Maximum altitude 22:35:15 17° 318° (NW) 6,051 14.0 -68.1°
Drops below altitude 10° 22:47:11 10° 350° (N) 6,919 14.2 -70.3°
Sets 22:56:13 0° 8° (N) 7,863 14.6 -72.0°
